DLH432 EDDF-KORD

Flight info

Callsign DLH432
Flight time N/A
Altitude 38000
Route OBOKA5G/25C OBOKA Z28 DIBIR DCT BUDIP DCT RAVLO Y70 OTBED DCT ABLUC DCT OZRAT DCT WETFI DCT DODIG DCT REVNU DCT PIKIL/M085F390 DCT 57N020W 57N030W 57N040W 56N050W DCT JANJO/N0492F400 N714B YBC DCT IGSAS DCT KAPUX DCT HOCKE DCT FNT WYNDE3
Aircraft A359/H-SDE2E3GHIJ3J4J5LM1ORWXY/LB1D1

Departure

Time 2026-05-03 22:32
Airport Frankfurt Main Airport (EDDF)

Arrival

Time N/A
Airport Chicago O'Hare International Airport (KORD)
Time Latitude Longitude Altitude Speed Heading
2026-05-03 22:01 50.04671 8.56046 362 ft 0 kts 340°
2026-05-03 22:16 50.04662 8.56052 362 ft 3 kts 334°
2026-05-03 22:17 50.04645 8.56066 369 ft 3 kts 320°
2026-05-03 22:17 50.04630 8.56085 368 ft 3 kts 319°
2026-05-03 22:17 50.04617 8.56107 366 ft 3 kts 300°
2026-05-03 22:17 50.04608 8.56134 366 ft 3 kts 289°
2026-05-03 22:18 50.04603 8.56163 363 ft 3 kts 269°
2026-05-03 22:18 50.04606 8.56192 363 ft 0 kts 252°
2026-05-03 22:21 50.04602 8.56171 365 ft 7 kts 252°
2026-05-03 22:22 50.04584 8.56090 364 ft 9 kts 251°
2026-05-03 22:22 50.04561 8.55999 366 ft 10 kts 244°
2026-05-03 22:22 50.04546 8.55960 366 ft 0 kts 238°
2026-05-03 22:22 50.04543 8.55952 368 ft 0 kts 238°
2026-05-03 22:23 50.04540 8.55945 367 ft 0 kts 237°
2026-05-03 22:23 50.04522 8.55941 368 ft 8 kts 188°
2026-05-03 22:24 50.04461 8.55923 366 ft 9 kts 194°
2026-05-03 22:24 50.04392 8.55912 367 ft 11 kts 177°
2026-05-03 22:24 50.04319 8.55947 365 ft 12 kts 158°
2026-05-03 22:24 50.04242 8.55934 361 ft 12 kts 199°
2026-05-03 22:25 50.04158 8.55935 365 ft 13 kts 166°
2026-05-03 22:25 50.04080 8.55997 367 ft 11 kts 125°
2026-05-03 22:25 50.04082 8.56091 363 ft 8 kts 76°
2026-05-03 22:25 50.04101 8.56180 364 ft 9 kts 68°
2026-05-03 22:26 50.04127 8.56279 343 ft 10 kts 69°
2026-05-03 22:26 50.04156 8.56399 365 ft 12 kts 70°
2026-05-03 22:26 50.04186 8.56523 365 ft 12 kts 68°
2026-05-03 22:26 50.04216 8.56645 366 ft 12 kts 69°
2026-05-03 22:27 50.04244 8.56768 370 ft 14 kts 70°
2026-05-03 22:27 50.04290 8.56961 369 ft 21 kts 70°
2026-05-03 22:27 50.04339 8.57168 367 ft 20 kts 70°
2026-05-03 22:27 50.04389 8.57378 371 ft 21 kts 69°
2026-05-03 22:28 50.04439 8.57589 374 ft 20 kts 70°
2026-05-03 22:28 50.04487 8.57794 372 ft 20 kts 70°
2026-05-03 22:28 50.04537 8.58002 373 ft 21 kts 69°
2026-05-03 22:28 50.04590 8.58218 373 ft 20 kts 70°
2026-05-03 22:29 50.04637 8.58413 377 ft 19 kts 70°
2026-05-03 22:29 50.04646 8.58540 375 ft 8 kts 109°
2026-05-03 22:29 50.04613 8.58576 377 ft 6 kts 158°
2026-05-03 22:29 50.04540 8.58617 377 ft 15 kts 167°
2026-05-03 22:30 50.04478 8.58543 376 ft 0 kts 248°
2026-05-03 22:31 50.04439 8.58387 375 ft 43 kts 249°
2026-05-03 22:31 50.04263 8.57651 372 ft 101 kts 250°
2026-05-03 22:31 50.03955 8.56360 363 ft 151 kts 250°
2026-05-03 22:31 50.03551 8.54635 578 ft 175 kts 250°
2026-05-03 22:32 50.03168 8.52907 1305 ft 164 kts 250°
2026-05-03 22:32 50.02787 8.51174 1736 ft 177 kts 252°
2026-05-03 22:32 50.02715 8.49152 2013 ft 197 kts 271°
2026-05-03 22:32 50.02859 8.46985 2501 ft 204 kts 274°
2026-05-03 22:33 50.02980 8.44769 3007 ft 210 kts 266°
2026-05-03 22:33 50.02815 8.42434 3380 ft 225 kts 258°
2026-05-03 22:33 50.02517 8.39940 3715 ft 242 kts 257°
2026-05-03 22:33 50.02194 8.37326 4296 ft 248 kts 257°
2026-05-03 22:34 50.01875 8.34701 4933 ft 253 kts 257°
2026-05-03 22:34 50.01543 8.31955 5596 ft 257 kts 257°
2026-05-03 22:34 50.01307 8.29222 6278 ft 262 kts 266°
2026-05-03 22:34 50.01640 8.26423 6985 ft 269 kts 288°
2026-05-03 22:35 50.02403 8.23744 7722 ft 271 kts 291°
2026-05-03 22:35 50.03208 8.21072 8472 ft 273 kts 290°
2026-05-03 22:35 50.04008 8.18378 9214 ft 276 kts 290°
2026-05-03 22:35 50.04809 8.15653 9988 ft 278 kts 289°
2026-05-03 22:36 50.05638 8.12881 10475 ft 292 kts 292°
2026-05-03 22:36 50.06798 8.10138 10768 ft 315 kts 303°
2026-05-03 22:36 50.08206 8.07407 11072 ft 333 kts 304°
2026-05-03 22:36 50.09702 8.04548 11413 ft 347 kts 305°
2026-05-03 22:37 50.11241 8.01589 11972 ft 354 kts 304°
2026-05-03 22:37 50.12795 7.98588 12627 ft 358 kts 305°
2026-05-03 22:37 50.14367 7.95544 13308 ft 362 kts 305°
2026-05-03 22:37 50.15954 7.92461 13957 ft 366 kts 305°
2026-05-03 22:38 50.17552 7.89348 14519 ft 370 kts 305°
2026-05-03 22:38 50.19146 7.86234 15074 ft 374 kts 305°
2026-05-03 22:38 50.20782 7.83054 15655 ft 378 kts 306°
2026-05-03 22:38 50.22665 7.80137 16204 ft 386 kts 318°
2026-05-03 22:39 50.24922 7.77783 16805 ft 392 kts 326°
2026-05-03 22:39 50.27294 7.75629 17369 ft 396 kts 327°
2026-05-03 22:39 50.29657 7.73535 17935 ft 400 kts 327°
2026-05-03 22:39 50.32090 7.71392 18481 ft 404 kts 327°
2026-05-03 22:40 50.34556 7.69222 19008 ft 407 kts 327°
2026-05-03 22:40 50.37033 7.67044 19543 ft 410 kts 327°
2026-05-03 22:40 50.39528 7.64849 20076 ft 413 kts 327°
2026-05-03 22:40 50.42046 7.62630 20646 ft 416 kts 327°
2026-05-03 22:41 50.44584 7.60391 21181 ft 420 kts 327°
2026-05-03 22:41 50.47151 7.58125 21722 ft 423 kts 327°
2026-05-03 22:41 50.49722 7.55853 22252 ft 426 kts 327°
2026-05-03 22:41 50.52311 7.53561 22779 ft 429 kts 327°
2026-05-03 22:42 50.54889 7.51276 23293 ft 433 kts 327°
2026-05-03 22:42 50.57530 7.48932 23769 ft 436 kts 327°
2026-05-03 22:42 50.60086 7.46662 24213 ft 438 kts 327°
2026-05-03 22:42 50.62749 7.44293 24687 ft 440 kts 327°
2026-05-03 22:43 50.65419 7.41915 25158 ft 442 kts 327°
2026-05-03 22:43 50.68106 7.39519 25607 ft 444 kts 327°
2026-05-03 22:43 50.70800 7.37106 26066 ft 446 kts 326°
2026-05-03 22:43 50.73375 7.34398 26502 ft 444 kts 318°
2026-05-03 22:44 50.75618 7.31064 26940 ft 442 kts 308°
2026-05-03 22:44 50.77579 7.27343 27381 ft 442 kts 304°
2026-05-03 22:44 50.79398 7.23417 27813 ft 443 kts 301°
2026-05-03 22:44 50.81151 7.19389 28246 ft 445 kts 301°
2026-05-03 22:45 50.82887 7.15326 28664 ft 447 kts 301°
2026-05-03 22:45 50.84616 7.11292 29068 ft 449 kts 301°
2026-05-03 22:45 50.86389 7.07200 29464 ft 451 kts 301°
2026-05-03 22:45 50.88186 7.03095 29863 ft 454 kts 301°
2026-05-03 22:46 50.89989 6.99004 30205 ft 456 kts 301°
2026-05-03 22:46 50.91802 6.94916 30506 ft 459 kts 301°
2026-05-03 22:46 50.93665 6.90712 30797 ft 461 kts 301°
2026-05-03 22:46 50.95510 6.86536 31064 ft 463 kts 301°
2026-05-03 22:47 50.97355 6.82351 31348 ft 465 kts 301°
2026-05-03 22:47 50.99216 6.78120 31644 ft 467 kts 301°
2026-05-03 22:47 51.01081 6.73873 31900 ft 469 kts 301°
2026-05-03 22:47 51.02947 6.69617 32154 ft 470 kts 301°
2026-05-03 22:48 51.04797 6.65390 32421 ft 472 kts 301°
2026-05-03 22:48 51.06674 6.61093 32676 ft 474 kts 301°
2026-05-03 22:48 51.08551 6.56794 33044 ft 472 kts 301°
2026-05-03 22:48 51.10426 6.52504 33452 ft 471 kts 301°
2026-05-03 22:49 51.12293 6.48217 33824 ft 469 kts 301°
2026-05-03 22:49 51.14151 6.43934 34141 ft 468 kts 301°
2026-05-03 22:49 51.15976 6.39713 34406 ft 468 kts 301°
2026-05-03 22:49 51.17819 6.35445 34657 ft 468 kts 301°
2026-05-03 22:50 51.19661 6.31174 34883 ft 468 kts 301°
2026-05-03 22:50 51.21505 6.26891 35103 ft 468 kts 301°
2026-05-03 22:50 51.23350 6.22601 35342 ft 468 kts 301°
2026-05-03 22:50 51.25192 6.18315 35557 ft 468 kts 301°
2026-05-03 22:51 51.27031 6.14028 35769 ft 468 kts 301°
2026-05-03 22:51 51.28869 6.09729 35985 ft 468 kts 300°
2026-05-03 22:51 51.30680 6.05380 36180 ft 468 kts 299°
2026-05-03 22:51 51.32455 6.01023 36402 ft 468 kts 299°
2026-05-03 22:52 51.34227 5.96639 36582 ft 468 kts 299°
2026-05-03 22:52 51.35971 5.92317 36700 ft 470 kts 299°
2026-05-03 22:52 51.37851 5.88002 36744 ft 476 kts 304°
2026-05-03 22:52 51.40029 5.83986 36954 ft 477 kts 308°
2026-05-03 22:53 51.42272 5.80093 37266 ft 474 kts 309°
2026-05-03 22:53 51.44538 5.76247 37525 ft 473 kts 309°
2026-05-03 22:53 51.46806 5.72433 37708 ft 473 kts 310°
2026-05-03 22:53 51.49084 5.68608 37892 ft 472 kts 309°
2026-05-03 22:54 51.51353 5.64791 38062 ft 472 kts 309°
2026-05-03 22:54 51.53612 5.60977 38254 ft 472 kts 309°
2026-05-03 22:54 51.55842 5.57198 38422 ft 471 kts 309°
2026-05-03 22:54 51.58101 5.53360 38554 ft 471 kts 309°
2026-05-03 22:55 51.60355 5.49522 38685 ft 471 kts 309°
2026-05-03 22:55 51.62601 5.45690 38796 ft 471 kts 309°
2026-05-03 22:55 51.64850 5.41845 38888 ft 471 kts 309°
2026-05-03 22:55 51.67099 5.37997 38996 ft 471 kts 309°
2026-05-03 22:56 51.69348 5.34141 39073 ft 472 kts 309°
2026-05-03 22:56 51.73839 5.26426 39258 ft 472 kts 309°
2026-05-03 22:57 51.78305 5.18729 39413 ft 472 kts 309°
2026-05-03 22:57 51.82796 5.10966 39595 ft 472 kts 309°
2026-05-03 22:58 51.87284 5.03184 39746 ft 473 kts 309°
2026-05-03 22:58 51.91773 4.95375 39832 ft 475 kts 309°
2026-05-03 22:59 51.96289 4.87493 39849 ft 478 kts 309°
2026-05-03 22:59 52.00815 4.79569 39940 ft 479 kts 309°
2026-05-03 23:00 52.05322 4.71656 39917 ft 480 kts 309°
2026-05-03 23:00 52.09852 4.63676 39940 ft 481 kts 308°
2026-05-03 23:01 52.14386 4.55665 39944 ft 480 kts 308°
2026-05-03 23:01 52.18904 4.47652 39939 ft 480 kts 308°
2026-05-03 23:02 52.23394 4.39663 39940 ft 480 kts 308°
2026-05-03 23:02 52.27927 4.31571 39937 ft 480 kts 308°
2026-05-03 23:03 52.32408 4.23547 39937 ft 481 kts 308°
2026-05-03 23:03 52.36923 4.15435 39930 ft 481 kts 308°
2026-05-03 23:04 52.41426 4.07319 39935 ft 482 kts 308°
2026-05-03 23:04 52.45934 3.99169 39933 ft 482 kts 308°
2026-05-03 23:05 52.50437 3.91001 39928 ft 482 kts 308°
2026-05-03 23:05 52.54908 3.82863 39933 ft 483 kts 308°
2026-05-03 23:06 52.59405 3.74652 39933 ft 483 kts 308°
2026-05-03 23:06 52.63891 3.66433 39933 ft 482 kts 308°
2026-05-03 23:07 52.67618 3.59583 39936 ft 482 kts 308°
2026-05-03 23:07 52.72827 3.49978 39932 ft 483 kts 308°
2026-05-03 23:08 52.76576 3.43042 39927 ft 483 kts 308°
2026-05-03 23:08 52.81014 3.34806 39918 ft 483 kts 308°
2026-05-03 23:09 52.85491 3.26471 39920 ft 483 kts 308°
2026-05-03 23:09 52.89746 3.17905 39920 ft 479 kts 299°
2026-05-03 23:10 52.92514 3.08103 39922 ft 470 kts 282°
2026-05-03 23:10 52.94079 2.97603 39917 ft 469 kts 279°
2026-05-03 23:11 52.95436 2.87008 39926 ft 470 kts 279°
2026-05-03 23:11 52.96778 2.76383 39919 ft 470 kts 279°
2026-05-03 23:12 52.98126 2.65832 39925 ft 470 kts 279°
2026-05-03 23:12 52.99489 2.55200 39922 ft 470 kts 279°
2026-05-03 23:13 53.00846 2.44562 39924 ft 470 kts 279°
2026-05-03 23:13 53.02182 2.33984 39924 ft 471 kts 278°
2026-05-03 23:14 53.03518 2.23331 39932 ft 471 kts 278°
2026-05-03 23:14 53.04844 2.12670 39928 ft 471 kts 278°
2026-05-03 23:15 53.06166 2.01993 39929 ft 471 kts 278°
2026-05-03 23:15 53.07472 1.91305 39926 ft 472 kts 278°
2026-05-03 23:16 53.08769 1.80598 39932 ft 474 kts 278°
2026-05-03 23:16 53.10070 1.69786 39930 ft 477 kts 278°
2026-05-03 23:17 53.11360 1.58989 39933 ft 480 kts 278°
2026-05-03 23:17 53.12657 1.48044 39934 ft 482 kts 278°
2026-05-03 23:18 53.13949 1.37054 39935 ft 484 kts 278°
2026-05-03 23:18 53.15234 1.26023 39938 ft 485 kts 278°
2026-05-03 23:19 53.16501 1.15060 39943 ft 486 kts 278°
2026-05-03 23:19 53.17773 1.03952 39944 ft 486 kts 278°
2026-05-03 23:20 53.19027 0.92911 39945 ft 487 kts 278°
2026-05-03 23:20 53.20284 0.81743 39944 ft 487 kts 278°
2026-05-03 23:21 53.21516 0.70689 39948 ft 488 kts 278°
2026-05-03 23:21 53.22750 0.59535 39943 ft 489 kts 278°
2026-05-03 23:22 53.24586 0.42780 39948 ft 489 kts 277°
2026-05-03 23:22 53.25793 0.31586 39952 ft 490 kts 277°
2026-05-03 23:23 53.26991 0.20374 39951 ft 490 kts 277°
2026-05-03 23:23 53.28179 0.09158 39953 ft 491 kts 277°
2026-05-03 23:24 53.29394 -0.02068 40014 ft 492 kts 280°
2026-05-03 23:24 53.30869 -0.13213 39960 ft 494 kts 282°
2026-05-03 23:25 53.32411 -0.24424 39960 ft 494 kts 281°
2026-05-03 23:25 53.33905 -0.35660 39963 ft 495 kts 281°
2026-05-03 23:26 53.35361 -0.46921 39963 ft 495 kts 281°
2026-05-03 23:26 53.36799 -0.58190 39966 ft 495 kts 281°
2026-05-03 23:27 53.38224 -0.69444 39966 ft 496 kts 281°
2026-05-03 23:27 53.39644 -0.80735 39971 ft 496 kts 281°
2026-05-03 23:28 53.41060 -0.92082 39974 ft 496 kts 281°
2026-05-03 23:28 53.42466 -1.03438 39976 ft 496 kts 281°
2026-05-03 23:29 53.43847 -1.14695 39980 ft 496 kts 280°
2026-05-03 23:29 53.45229 -1.26050 39984 ft 496 kts 280°
2026-05-03 23:30 53.46599 -1.37400 39987 ft 496 kts 280°
2026-05-03 23:30 53.47960 -1.48778 39989 ft 496 kts 280°
2026-05-03 23:31 53.49311 -1.60164 39993 ft 497 kts 280°
2026-05-03 23:31 53.50640 -1.71467 39996 ft 497 kts 280°
2026-05-03 23:32 53.51968 -1.82862 39991 ft 497 kts 280°
2026-05-03 23:32 53.53286 -1.94266 39994 ft 497 kts 280°
2026-05-03 23:33 53.54595 -2.05696 39993 ft 497 kts 280°
2026-05-03 23:33 53.55883 -2.17044 39994 ft 497 kts 280°
2026-05-03 23:34 53.57168 -2.28462 39992 ft 497 kts 279°
2026-05-03 23:34 53.58445 -2.39923 39992 ft 497 kts 279°
2026-05-03 23:35 53.59707 -2.51354 39993 ft 497 kts 279°
2026-05-03 23:35 53.60966 -2.62853 39994 ft 497 kts 279°
2026-05-03 23:36 53.62208 -2.74304 39994 ft 498 kts 279°
2026-05-03 23:36 53.63443 -2.85804 39993 ft 498 kts 279°
2026-05-03 23:37 53.64656 -2.97213 39993 ft 498 kts 279°
2026-05-03 23:37 53.65868 -3.08710 39994 ft 498 kts 279°
2026-05-03 23:38 53.67068 -3.20217 39998 ft 497 kts 279°
2026-05-03 23:38 53.68256 -3.31722 39999 ft 497 kts 279°
2026-05-03 23:39 53.69434 -3.43236 40001 ft 497 kts 279°
2026-05-03 23:39 53.70592 -3.54666 39999 ft 497 kts 279°
2026-05-03 23:40 53.71750 -3.66213 40002 ft 498 kts 279°
2026-05-03 23:40 53.72889 -3.77687 40001 ft 498 kts 279°
2026-05-03 23:41 53.74024 -3.89237 40003 ft 498 kts 279°
2026-05-03 23:41 53.75149 -4.00804 40000 ft 499 kts 279°
2026-05-03 23:42 53.76264 -4.12386 40005 ft 499 kts 279°
2026-05-03 23:42 53.77367 -4.23977 40008 ft 499 kts 279°
2026-05-03 23:43 53.78459 -4.35576 40006 ft 499 kts 279°
2026-05-03 23:43 53.79542 -4.47187 40005 ft 499 kts 279°
2026-05-03 23:44 53.80185 -4.58835 40005 ft 499 kts 274°
2026-05-03 23:44 53.80607 -4.70575 40005 ft 499 kts 273°
2026-05-03 23:45 53.80984 -4.82320 40009 ft 500 kts 273°
2026-05-03 23:45 53.81357 -4.94066 40010 ft 500 kts 273°
2026-05-03 23:46 53.81716 -5.05782 40014 ft 500 kts 273°
2026-05-03 23:46 53.82067 -5.17550 40017 ft 500 kts 273°
2026-05-03 23:47 53.82409 -5.29317 40020 ft 500 kts 273°
2026-05-03 23:47 53.82740 -5.41089 40025 ft 500 kts 273°
2026-05-03 23:48 53.83435 -5.52734 40032 ft 500 kts 282°
2026-05-03 23:48 53.84906 -5.64261 40029 ft 500 kts 283°
2026-05-03 23:49 53.86491 -5.75749 40028 ft 500 kts 284°
2026-05-03 23:49 53.88064 -5.87175 40032 ft 500 kts 283°
2026-05-03 23:50 53.89371 -5.96813 40031 ft 500 kts 283°
2026-05-03 23:50 53.91162 -6.10206 40034 ft 501 kts 283°
2026-05-03 23:51 53.92689 -6.21737 40035 ft 501 kts 283°
2026-05-03 23:51 53.94199 -6.33229 40033 ft 501 kts 283°
2026-05-03 23:52 53.95708 -6.44798 40036 ft 501 kts 283°
2026-05-03 23:52 53.97264 -6.56331 40041 ft 501 kts 285°
2026-05-03 23:53 53.99068 -6.67788 40046 ft 501 kts 286°
2026-05-03 23:53 54.00883 -6.79164 40045 ft 501 kts 285°
2026-05-03 23:54 54.02656 -6.90621 40048 ft 501 kts 285°
2026-05-03 23:54 54.04109 -7.00192 40044 ft 501 kts 285°
2026-05-03 23:55 54.06113 -7.13535 40046 ft 501 kts 285°
2026-05-03 23:55 54.07541 -7.23103 40054 ft 501 kts 285°
2026-05-03 23:56 54.09251 -7.34631 40051 ft 501 kts 285°
2026-05-03 23:56 54.10948 -7.46146 40052 ft 501 kts 285°
2026-05-03 23:57 54.12632 -7.57658 40056 ft 501 kts 285°
2026-05-03 23:57 54.14293 -7.69104 40057 ft 501 kts 285°
2026-05-03 23:58 54.15958 -7.80659 40064 ft 501 kts 285°
2026-05-03 23:58 54.17611 -7.92211 40060 ft 501 kts 285°
2026-05-03 23:59 54.19250 -8.03758 40063 ft 501 kts 285°
2026-05-03 23:59 54.20881 -8.15335 40062 ft 501 kts 285°
2026-05-04 00:00 54.22491 -8.26849 40067 ft 500 kts 284°
2026-05-04 00:00 54.24101 -8.38449 40068 ft 500 kts 284°
2026-05-04 00:01 54.25698 -8.50042 40069 ft 500 kts 284°
2026-05-04 00:01 54.27283 -8.61641 40072 ft 500 kts 284°
2026-05-04 00:02 54.28850 -8.73200 40072 ft 500 kts 284°
2026-05-04 00:02 54.30411 -8.84805 40076 ft 500 kts 284°
2026-05-04 00:03 54.31952 -8.96351 40081 ft 500 kts 284°
2026-05-04 00:03 54.33492 -9.07987 40080 ft 500 kts 284°
2026-05-04 00:04 54.35020 -9.19619 40084 ft 499 kts 284°
2026-05-04 00:04 54.36527 -9.31186 40085 ft 499 kts 284°
2026-05-04 00:05 54.38033 -9.42832 40091 ft 499 kts 284°
2026-05-04 00:05 54.39526 -9.54486 40092 ft 499 kts 284°
2026-05-04 00:06 54.41002 -9.66098 40100 ft 499 kts 284°
2026-05-04 00:06 54.42472 -9.77761 40099 ft 499 kts 284°
2026-05-04 00:07 54.43931 -9.89431 40102 ft 499 kts 284°
2026-05-04 00:07 54.45378 -10.01100 40102 ft 499 kts 284°
2026-05-04 00:08 54.47281 -10.12516 40108 ft 495 kts 296°
2026-05-04 00:08 54.50496 -10.22877 40110 ft 492 kts 302°
2026-05-04 00:09 54.53991 -10.33029 40113 ft 492 kts 303°
2026-05-04 00:09 54.57487 -10.43087 40117 ft 492 kts 302°
2026-05-04 00:10 54.60974 -10.53225 40120 ft 491 kts 302°
2026-05-04 00:10 54.64432 -10.63377 40122 ft 490 kts 302°
2026-05-04 00:11 54.67877 -10.73549 40121 ft 490 kts 302°
2026-05-04 00:11 54.71308 -10.83719 40124 ft 489 kts 302°
2026-05-04 00:12 54.74731 -10.93904 40126 ft 489 kts 302°
2026-05-04 00:12 54.78115 -11.04015 40129 ft 489 kts 302°
2026-05-04 00:13 54.81519 -11.14227 40128 ft 488 kts 302°
2026-05-04 00:13 54.84909 -11.24442 40128 ft 488 kts 302°
2026-05-04 00:14 54.88294 -11.34683 40134 ft 488 kts 301°
2026-05-04 00:14 54.91643 -11.44860 40139 ft 488 kts 301°
2026-05-04 00:15 54.95009 -11.55131 40139 ft 487 kts 301°
2026-05-04 00:15 54.98358 -11.65395 40135 ft 487 kts 301°
2026-05-04 00:16 55.01701 -11.75683 40141 ft 487 kts 301°
2026-05-04 00:16 55.05010 -11.85908 40138 ft 487 kts 301°
2026-05-04 00:17 55.08337 -11.96233 40144 ft 487 kts 301°
2026-05-04 00:17 55.11648 -12.06554 40142 ft 487 kts 301°
2026-05-04 00:18 55.14953 -12.16903 40143 ft 487 kts 301°
2026-05-04 00:18 55.18231 -12.27209 40147 ft 487 kts 301°
2026-05-04 00:19 55.21519 -12.37591 40148 ft 487 kts 301°
2026-05-04 00:19 55.24799 -12.47993 40150 ft 487 kts 301°
2026-05-04 00:20 55.28066 -12.58397 40150 ft 487 kts 300°
2026-05-04 00:20 55.31301 -12.68748 40151 ft 486 kts 300°
2026-05-04 00:21 55.34547 -12.79178 40152 ft 486 kts 300°
2026-05-04 00:21 55.37786 -12.89630 40152 ft 486 kts 300°
2026-05-04 00:22 55.41020 -13.00112 40152 ft 486 kts 300°
2026-05-04 00:22 55.44220 -13.10530 40152 ft 486 kts 300°
2026-05-04 00:23 55.47432 -13.21033 40154 ft 486 kts 300°
2026-05-04 00:23 55.50621 -13.31507 40154 ft 486 kts 300°
2026-05-04 00:24 55.53819 -13.42059 40153 ft 486 kts 300°
2026-05-04 00:24 55.57003 -13.52610 40151 ft 486 kts 299°
2026-05-04 00:25 55.60157 -13.63107 40151 ft 486 kts 299°
2026-05-04 00:25 55.63321 -13.73688 40163 ft 486 kts 299°
2026-05-04 00:26 55.66479 -13.84294 40147 ft 486 kts 299°
2026-05-04 00:26 55.69621 -13.94895 40154 ft 485 kts 299°
2026-05-04 00:27 55.72733 -14.05443 40154 ft 485 kts 299°
2026-05-04 00:27 55.75854 -14.16066 40155 ft 485 kts 298°
2026-05-04 00:28 55.78968 -14.26717 40151 ft 485 kts 298°
2026-05-04 00:28 55.82069 -14.37371 40150 ft 484 kts 298°
2026-05-04 00:29 55.85159 -14.48036 40150 ft 484 kts 298°
2026-05-04 00:29 55.88216 -14.58634 40148 ft 484 kts 298°
2026-05-04 00:30 55.91285 -14.69322 40150 ft 484 kts 298°
2026-05-04 00:30 55.94343 -14.80023 40149 ft 484 kts 298°
2026-05-04 00:31 55.97372 -14.90671 40145 ft 483 kts 298°
2026-05-04 00:31 56.00412 -15.01411 40148 ft 483 kts 298°
2026-05-04 00:32 56.03066 -15.12448 40143 ft 483 kts 292°
2026-05-04 00:32 56.05427 -15.23637 40147 ft 483 kts 291°
2026-05-04 00:33 56.09060 -15.40473 40142 ft 482 kts 292°
2026-05-04 00:34 56.11527 -15.51659 40148 ft 482 kts 292°
2026-05-04 00:34 56.13972 -15.62757 40148 ft 481 kts 292°
2026-05-04 00:35 56.16418 -15.73934 40145 ft 481 kts 292°
2026-05-04 00:35 56.18851 -15.85121 40143 ft 480 kts 292°
2026-05-04 00:36 56.21271 -15.96316 40144 ft 480 kts 292°
2026-05-04 00:36 56.23679 -16.07517 40144 ft 480 kts 292°
2026-05-04 00:37 56.26061 -16.18654 40147 ft 479 kts 291°
2026-05-04 00:37 56.28448 -16.29874 40146 ft 479 kts 291°
2026-05-04 00:38 56.30821 -16.41093 40144 ft 479 kts 291°
2026-05-04 00:38 56.33183 -16.52321 40146 ft 478 kts 291°
2026-05-04 00:39 56.35519 -16.63492 40146 ft 478 kts 291°
2026-05-04 00:39 56.37855 -16.74718 40145 ft 478 kts 291°
2026-05-04 00:40 56.40179 -16.85952 40150 ft 477 kts 291°
2026-05-04 00:40 56.42492 -16.97194 40148 ft 477 kts 291°
2026-05-04 00:41 56.44794 -17.08450 40146 ft 477 kts 290°
2026-05-04 00:41 56.47081 -17.19690 40152 ft 476 kts 290°
2026-05-04 00:42 56.49349 -17.30901 40155 ft 476 kts 290°
2026-05-04 00:42 56.51618 -17.42182 40154 ft 476 kts 290°
2026-05-04 00:43 56.53866 -17.53421 40151 ft 476 kts 290°
2026-05-04 00:43 56.56111 -17.64712 40150 ft 475 kts 290°
2026-05-04 00:44 56.58346 -17.76016 40151 ft 476 kts 290°
2026-05-04 00:44 56.60554 -17.87251 40154 ft 476 kts 290°
2026-05-04 00:45 56.62764 -17.98560 40154 ft 476 kts 290°
2026-05-04 00:45 56.64601 -18.08006 40153 ft 476 kts 289°
2026-05-04 00:46 56.66794 -18.19347 40153 ft 476 kts 289°
2026-05-04 00:46 56.68978 -18.30711 40154 ft 476 kts 289°
2026-05-04 00:47 56.71152 -18.42087 40153 ft 475 kts 289°
2026-05-04 00:47 56.73304 -18.53415 40155 ft 475 kts 289°
2026-05-04 00:48 56.75456 -18.64811 40154 ft 475 kts 289°
2026-05-04 00:48 56.77599 -18.76231 40156 ft 475 kts 289°
2026-05-04 00:49 56.79733 -18.87666 40157 ft 475 kts 289°
2026-05-04 00:49 56.81841 -18.99034 40157 ft 475 kts 289°
2026-05-04 00:50 56.83951 -19.10481 40156 ft 475 kts 288°
2026-05-04 00:50 56.86049 -19.21932 40158 ft 475 kts 288°
2026-05-04 00:51 56.88142 -19.33423 40157 ft 475 kts 288°
2026-05-04 00:51 56.90225 -19.44936 40156 ft 475 kts 288°
2026-05-04 00:52 56.92280 -19.56358 40159 ft 475 kts 288°
2026-05-04 00:52 56.94340 -19.67884 40157 ft 476 kts 288°
2026-05-04 00:53 56.96388 -19.79414 40158 ft 476 kts 288°
2026-05-04 00:53 56.98424 -19.90948 40161 ft 476 kts 288°
2026-05-04 00:54 57.00018 -20.02720 40159 ft 475 kts 276°
2026-05-04 00:54 57.00638 -20.14721 40166 ft 476 kts 275°
2026-05-04 00:55 57.01092 -20.26848 40161 ft 476 kts 274°
2026-05-04 00:55 57.01517 -20.38996 40170 ft 476 kts 274°
2026-05-04 00:56 57.01948 -20.51144 40170 ft 476 kts 274°
2026-05-04 00:56 57.02376 -20.63292 40171 ft 476 kts 274°
2026-05-04 00:57 57.02792 -20.75349 40163 ft 476 kts 274°
2026-05-04 00:57 57.03198 -20.87497 40173 ft 476 kts 274°
2026-05-04 00:58 57.03593 -20.99658 40175 ft 476 kts 274°
2026-05-04 00:58 57.03975 -21.11808 40170 ft 476 kts 274°
2026-05-04 00:59 57.04344 -21.23890 40173 ft 476 kts 273°
2026-05-04 00:59 57.04703 -21.36051 40179 ft 476 kts 273°
2026-05-04 01:00 57.05050 -21.48216 40172 ft 476 kts 273°
2026-05-04 01:00 57.05385 -21.60385 40178 ft 476 kts 273°
2026-05-04 01:01 57.05709 -21.72553 40187 ft 476 kts 273°
2026-05-04 01:01 57.06018 -21.84634 40188 ft 476 kts 273°
2026-05-04 01:02 57.06318 -21.96807 40186 ft 476 kts 273°
2026-05-04 01:02 57.06606 -22.08965 40192 ft 476 kts 273°
2026-05-04 01:03 57.06883 -22.21143 40194 ft 476 kts 272°
2026-05-04 01:03 57.07147 -22.33303 40197 ft 476 kts 272°
2026-05-04 01:04 57.07399 -22.45412 40192 ft 476 kts 272°
2026-05-04 01:04 57.07639 -22.57587 40193 ft 476 kts 272°
2026-05-04 01:05 57.07868 -22.69750 40198 ft 476 kts 272°
2026-05-04 01:05 57.08086 -22.81922 40202 ft 476 kts 272°
2026-05-04 01:06 57.08292 -22.94090 40192 ft 476 kts 272°
2026-05-04 01:06 57.08485 -23.06258 40202 ft 476 kts 272°
2026-05-04 01:07 57.08666 -23.18356 40196 ft 476 kts 272°
2026-05-04 01:07 57.08836 -23.30551 40201 ft 476 kts 272°
2026-05-04 01:08 57.08995 -23.42741 40205 ft 476 kts 272°
2026-05-04 01:08 57.09141 -23.54855 40203 ft 476 kts 271°
2026-05-04 01:09 57.09275 -23.67034 40214 ft 476 kts 271°
2026-05-04 01:09 57.09399 -23.79211 40217 ft 476 kts 271°
2026-05-04 01:10 57.09510 -23.91402 40215 ft 476 kts 271°
2026-05-04 01:10 57.09609 -24.03594 40221 ft 476 kts 271°
2026-05-04 01:11 57.09696 -24.15713 40223 ft 477 kts 271°
2026-05-04 01:11 57.09772 -24.27930 40216 ft 476 kts 271°
2026-05-04 01:12 57.09836 -24.40118 40221 ft 477 kts 271°
2026-05-04 01:12 57.09888 -24.52247 40226 ft 477 kts 271°
2026-05-04 01:13 57.09929 -24.64436 40228 ft 477 kts 271°
2026-05-04 01:13 57.09957 -24.76638 40223 ft 477 kts 270°
2026-05-04 01:14 57.09974 -24.88851 40228 ft 477 kts 270°
2026-05-04 01:14 57.09979 -25.00976 40232 ft 477 kts 270°
2026-05-04 01:15 57.09972 -25.13172 40233 ft 477 kts 270°
2026-05-04 01:15 57.09953 -25.25391 40234 ft 477 kts 270°
2026-05-04 01:16 57.09923 -25.37608 40226 ft 477 kts 270°
2026-05-04 01:16 57.09880 -25.49840 40230 ft 477 kts 270°
2026-05-04 01:17 57.09826 -25.61971 40235 ft 477 kts 270°
2026-05-04 01:17 57.09760 -25.74206 40240 ft 477 kts 270°
2026-05-04 01:18 57.09681 -25.86439 40240 ft 477 kts 270°
2026-05-04 01:18 57.09592 -25.98596 40245 ft 477 kts 269°
2026-05-04 01:19 57.09490 -26.10824 40239 ft 478 kts 269°
2026-05-04 01:19 57.09376 -26.23046 40245 ft 478 kts 269°
2026-05-04 01:20 57.09250 -26.35299 40245 ft 478 kts 269°
2026-05-04 01:20 57.09113 -26.47472 40247 ft 478 kts 269°
2026-05-04 01:21 57.08963 -26.59695 40247 ft 478 kts 269°
2026-05-04 01:21 57.08802 -26.71926 40248 ft 478 kts 269°
2026-05-04 01:22 57.08630 -26.84083 40252 ft 478 kts 269°
2026-05-04 01:22 57.08445 -26.96311 40254 ft 478 kts 269°
2026-05-04 01:23 57.08247 -27.08540 40256 ft 478 kts 269°
2026-05-04 01:23 57.08038 -27.20775 40255 ft 479 kts 269°
2026-05-04 01:24 57.07818 -27.32959 40261 ft 478 kts 268°
2026-05-04 01:24 57.07585 -27.45175 40260 ft 478 kts 268°
2026-05-04 01:25 57.07340 -27.57411 40260 ft 479 kts 268°
2026-05-04 01:25 57.07083 -27.69648 40264 ft 479 kts 268°
2026-05-04 01:26 57.06814 -27.81868 40264 ft 479 kts 268°
2026-05-04 01:26 57.06533 -27.94114 40268 ft 479 kts 268°
2026-05-04 01:27 57.06243 -28.06255 40266 ft 479 kts 268°
2026-05-04 01:27 57.05939 -28.18468 40270 ft 479 kts 268°
2026-05-04 01:28 57.05622 -28.30697 40272 ft 479 kts 268°
2026-05-04 01:28 57.05293 -28.42922 40273 ft 479 kts 268°
2026-05-04 01:29 57.04953 -28.55152 40274 ft 479 kts 267°
2026-05-04 01:29 57.04603 -28.67299 40272 ft 479 kts 267°
2026-05-04 01:30 57.04240 -28.79494 40276 ft 479 kts 267°
2026-05-04 01:30 57.03863 -28.91745 40280 ft 479 kts 267°
2026-05-04 01:31 57.03477 -29.03891 40278 ft 479 kts 267°
2026-05-04 01:31 57.03078 -29.16109 40281 ft 479 kts 267°
2026-05-04 01:32 57.02669 -29.28242 40284 ft 479 kts 266°
2026-05-04 01:32 57.02245 -29.40452 40282 ft 479 kts 266°
2026-05-04 01:33 57.01810 -29.52661 40284 ft 479 kts 266°
2026-05-04 01:33 57.01362 -29.64879 40290 ft 479 kts 266°
2026-05-04 01:34 57.00902 -29.77094 40286 ft 479 kts 266°
2026-05-04 01:34 57.00434 -29.89219 40288 ft 480 kts 266°
2026-05-04 01:35 57.00145 -30.01442 40290 ft 479 kts 273°
2026-05-04 01:35 57.00443 -30.11686 40289 ft 480 kts 274°
2026-05-04 01:36 57.00908 -30.23814 40292 ft 480 kts 274°
2026-05-04 01:36 57.01387 -30.36044 40294 ft 480 kts 274°
2026-05-04 01:37 57.01845 -30.48273 40290 ft 480 kts 274°
2026-05-04 01:37 57.02283 -30.60519 40288 ft 480 kts 274°
2026-05-04 01:38 57.02703 -30.72703 40292 ft 480 kts 274°
2026-05-04 01:38 57.03115 -30.84975 40295 ft 481 kts 273°
2026-05-04 01:39 57.03515 -30.97221 40293 ft 481 kts 273°
2026-05-04 01:39 57.03903 -31.09490 40297 ft 481 kts 273°
2026-05-04 01:40 57.04277 -31.21689 40296 ft 481 kts 273°
2026-05-04 01:40 57.04642 -31.33964 40296 ft 481 kts 273°
2026-05-04 01:41 57.04994 -31.46249 40297 ft 481 kts 273°
2026-05-04 01:41 57.05335 -31.58539 40299 ft 481 kts 272°
2026-05-04 01:42 57.05662 -31.70753 40301 ft 481 kts 272°
2026-05-04 01:42 57.05979 -31.83059 40299 ft 481 kts 272°
2026-05-04 01:43 57.06283 -31.95350 40301 ft 481 kts 272°
2026-05-04 01:43 57.06576 -32.07655 40300 ft 481 kts 272°
2026-05-04 01:44 57.06855 -32.19875 40303 ft 481 kts 272°
2026-05-04 01:44 57.07123 -32.32184 40305 ft 482 kts 272°
2026-05-04 01:45 57.07380 -32.44499 40303 ft 482 kts 272°
2026-05-04 01:45 57.07742 -32.62967 40301 ft 482 kts 272°
2026-05-04 01:46 57.07969 -32.75281 40302 ft 482 kts 271°
2026-05-04 01:46 57.08182 -32.87517 40304 ft 482 kts 271°
2026-05-04 01:47 57.08385 -32.99874 40305 ft 482 kts 271°
2026-05-04 01:47 57.08575 -33.12196 40310 ft 482 kts 271°
2026-05-04 01:48 57.08753 -33.24469 40306 ft 482 kts 271°
2026-05-04 01:48 57.08919 -33.36794 40306 ft 482 kts 271°
2026-05-04 01:49 57.09074 -33.49131 40307 ft 482 kts 271°
2026-05-04 01:49 57.09216 -33.61492 40308 ft 483 kts 271°
2026-05-04 01:50 57.09346 -33.73842 40306 ft 483 kts 271°
2026-05-04 01:50 57.09463 -33.86127 40306 ft 483 kts 271°
2026-05-04 01:51 57.09569 -33.98511 40309 ft 483 kts 270°
2026-05-04 01:51 57.09663 -34.10883 40309 ft 483 kts 270°
2026-05-04 01:52 57.09745 -34.23170 40307 ft 483 kts 270°
2026-05-04 01:52 57.09814 -34.35538 40311 ft 483 kts 270°
2026-05-04 01:53 57.09871 -34.47922 40309 ft 484 kts 270°
2026-05-04 01:53 57.09917 -34.60311 40309 ft 484 kts 270°
2026-05-04 01:54 57.09950 -34.72625 40309 ft 484 kts 270°
2026-05-04 01:54 57.09970 -34.85017 40309 ft 484 kts 270°
2026-05-04 01:55 57.09979 -34.97414 40313 ft 484 kts 270°
2026-05-04 01:55 57.09975 -35.09814 40310 ft 485 kts 270°
2026-05-04 01:56 57.09960 -35.22147 40310 ft 485 kts 270°
2026-05-04 01:56 57.09931 -35.34560 40311 ft 485 kts 269°
2026-05-04 01:57 57.09891 -35.46980 40309 ft 485 kts 269°
2026-05-04 01:57 57.09839 -35.59324 40309 ft 485 kts 269°
2026-05-04 01:58 57.09774 -35.71751 40311 ft 485 kts 269°
2026-05-04 01:58 57.09697 -35.84169 40310 ft 485 kts 269°
2026-05-04 01:59 57.09607 -35.96607 40309 ft 486 kts 269°
2026-05-04 01:59 57.09506 -36.09034 40309 ft 486 kts 269°
2026-05-04 02:00 57.09392 -36.21463 40307 ft 486 kts 269°
2026-05-04 02:00 57.09266 -36.33858 40311 ft 486 kts 269°
2026-05-04 02:01 57.09127 -36.46249 40309 ft 486 kts 269°
2026-05-04 02:01 57.08976 -36.58706 40306 ft 487 kts 269°
2026-05-04 02:02 57.08812 -36.71173 40310 ft 487 kts 268°
2026-05-04 02:02 57.08637 -36.83570 40310 ft 487 kts 268°
2026-05-04 02:03 57.08449 -36.96031 40308 ft 487 kts 268°
2026-05-04 02:03 57.08248 -37.08489 40309 ft 487 kts 268°
2026-05-04 02:04 57.08034 -37.20970 40310 ft 487 kts 268°
2026-05-04 02:04 57.07810 -37.33365 40304 ft 487 kts 268°
2026-05-04 02:05 57.07572 -37.45838 40306 ft 487 kts 268°
2026-05-04 02:05 57.07321 -37.58316 40304 ft 488 kts 268°
2026-05-04 02:06 57.07060 -37.70704 40307 ft 488 kts 268°
2026-05-04 02:06 57.06785 -37.83167 40306 ft 488 kts 268°
2026-05-04 02:07 57.06498 -37.95633 40306 ft 488 kts 267°
2026-05-04 02:07 57.06197 -38.08108 40303 ft 488 kts 267°
2026-05-04 02:08 57.05887 -38.20510 40308 ft 488 kts 267°
2026-05-04 02:08 57.05562 -38.32981 40307 ft 488 kts 267°
2026-05-04 02:09 57.05224 -38.45458 40301 ft 488 kts 267°
2026-05-04 02:09 57.04875 -38.57915 40299 ft 488 kts 267°
2026-05-04 02:10 57.04514 -38.70334 40301 ft 489 kts 267°
2026-05-04 02:10 57.04139 -38.82807 40298 ft 489 kts 266°
2026-05-04 02:11 57.03754 -38.95211 40296 ft 489 kts 266°
2026-05-04 02:11 57.03354 -39.07692 40296 ft 489 kts 266°
2026-05-04 02:12 57.02943 -39.20144 40291 ft 489 kts 266°
2026-05-04 02:12 57.02518 -39.32606 40293 ft 489 kts 266°
2026-05-04 02:13 57.02083 -39.45019 40290 ft 489 kts 266°
2026-05-04 02:13 57.01634 -39.57489 40288 ft 489 kts 266°
2026-05-04 02:14 57.01172 -39.69962 40292 ft 489 kts 266°
2026-05-04 02:14 57.00702 -39.82333 40290 ft 489 kts 266°
2026-05-04 02:15 57.00216 -39.94783 40286 ft 489 kts 266°
2026-05-04 02:15 56.99676 -40.07232 40288 ft 489 kts 264°
2026-05-04 02:16 56.98923 -40.19651 40289 ft 489 kts 263°
2026-05-04 02:16 56.98133 -40.31974 40280 ft 489 kts 263°
2026-05-04 02:17 56.97355 -40.44371 40282 ft 489 kts 263°
2026-05-04 02:17 56.96584 -40.56770 40279 ft 489 kts 263°
2026-05-04 02:18 56.95806 -40.69135 40280 ft 488 kts 263°
2026-05-04 02:18 56.95015 -40.81497 40280 ft 488 kts 263°
2026-05-04 02:19 56.94215 -40.93791 40280 ft 488 kts 263°
2026-05-04 02:19 56.93399 -41.06136 40275 ft 488 kts 263°
2026-05-04 02:20 56.92570 -41.18481 40273 ft 488 kts 263°
2026-05-04 02:20 56.91730 -41.30813 40273 ft 487 kts 263°
2026-05-04 02:21 56.90884 -41.43041 40272 ft 487 kts 263°
2026-05-04 02:21 56.90020 -41.55356 40270 ft 487 kts 263°
2026-05-04 02:22 56.89143 -41.67678 40270 ft 487 kts 262°
2026-05-04 02:22 56.88262 -41.79883 40268 ft 487 kts 262°
2026-05-04 02:23 56.87363 -41.92164 40265 ft 487 kts 262°
2026-05-04 02:23 56.86451 -42.04452 40265 ft 487 kts 262°
2026-05-04 02:24 56.85684 -42.14657 40265 ft 487 kts 262°
2026-05-04 02:24 56.84751 -42.26916 40260 ft 487 kts 262°
2026-05-04 02:25 56.83810 -42.39130 40262 ft 487 kts 262°
2026-05-04 02:25 56.82853 -42.51385 40259 ft 487 kts 262°
2026-05-04 02:26 56.81884 -42.63626 40258 ft 487 kts 262°
2026-05-04 02:26 56.80903 -42.75865 40256 ft 487 kts 262°
2026-05-04 02:27 56.79917 -42.88012 40253 ft 486 kts 262°
2026-05-04 02:27 56.78910 -43.00263 40248 ft 486 kts 261°
2026-05-04 02:28 56.77900 -43.12395 40249 ft 486 kts 261°
2026-05-04 02:28 56.76874 -43.24583 40246 ft 486 kts 261°
2026-05-04 02:29 56.75834 -43.36776 40241 ft 486 kts 261°
2026-05-04 02:29 56.74785 -43.48942 40242 ft 486 kts 261°
2026-05-04 02:30 56.73724 -43.61095 40236 ft 486 kts 261°
2026-05-04 02:30 56.72649 -43.73261 40238 ft 485 kts 261°
2026-05-04 02:31 56.71565 -43.85394 40234 ft 485 kts 261°
2026-05-04 02:31 56.70476 -43.97444 40233 ft 485 kts 261°
2026-05-04 02:32 56.69367 -44.09579 40229 ft 485 kts 260°
2026-05-04 02:32 56.68248 -44.21686 40226 ft 485 kts 260°
2026-05-04 02:33 56.67126 -44.33700 40224 ft 484 kts 260°
2026-05-04 02:33 56.65985 -44.45773 40221 ft 484 kts 260°
2026-05-04 02:34 56.64835 -44.57820 40222 ft 484 kts 260°
2026-05-04 02:34 56.63670 -44.69897 40215 ft 484 kts 260°
2026-05-04 02:35 56.62500 -44.81890 40215 ft 484 kts 260°
2026-05-04 02:35 56.61312 -44.93947 40212 ft 484 kts 259°
2026-05-04 02:36 56.60121 -45.05904 40210 ft 483 kts 259°
2026-05-04 02:36 56.58911 -45.17930 40207 ft 483 kts 259°
2026-05-04 02:37 56.57700 -45.29853 40206 ft 483 kts 259°
2026-05-04 02:37 56.56469 -45.41842 40203 ft 483 kts 259°
2026-05-04 02:38 56.55226 -45.53825 40196 ft 483 kts 259°
2026-05-04 02:38 56.53972 -45.65802 40196 ft 483 kts 259°
2026-05-04 02:39 56.52707 -45.77768 40192 ft 483 kts 259°
2026-05-04 02:39 56.51439 -45.89647 40190 ft 483 kts 259°
2026-05-04 02:40 56.50150 -46.01596 40187 ft 483 kts 258°
2026-05-04 02:40 56.48852 -46.13522 40180 ft 482 kts 258°
2026-05-04 02:41 56.47551 -46.25365 40178 ft 482 kts 258°
2026-05-04 02:41 56.46231 -46.37266 40175 ft 481 kts 258°
2026-05-04 02:42 56.44901 -46.49155 40171 ft 481 kts 258°
2026-05-04 02:42 56.43568 -46.60956 40167 ft 481 kts 258°
2026-05-04 02:43 56.42218 -46.72799 40162 ft 481 kts 258°
2026-05-04 02:43 56.40856 -46.84632 40157 ft 480 kts 258°
2026-05-04 02:44 56.39495 -46.96364 40151 ft 480 kts 258°
2026-05-04 02:44 56.38113 -47.08165 40152 ft 480 kts 258°
2026-05-04 02:45 56.36720 -47.19958 40143 ft 480 kts 258°
2026-05-04 02:45 56.35318 -47.31728 40141 ft 479 kts 257°
2026-05-04 02:46 56.33915 -47.43401 40138 ft 479 kts 257°
2026-05-04 02:46 56.32492 -47.55133 40129 ft 479 kts 257°
2026-05-04 02:47 56.31060 -47.66850 40126 ft 478 kts 257°
2026-05-04 02:47 56.29617 -47.78552 40124 ft 478 kts 257°
2026-05-04 02:48 56.28165 -47.90229 40119 ft 478 kts 257°
2026-05-04 02:48 56.26704 -48.01886 40116 ft 477 kts 257°
2026-05-04 02:49 56.25230 -48.13549 40110 ft 477 kts 257°
2026-05-04 02:49 56.23759 -48.25091 40103 ft 476 kts 257°
2026-05-04 02:50 56.22267 -48.36704 40101 ft 476 kts 257°
2026-05-04 02:50 56.20767 -48.48292 40090 ft 475 kts 257°
2026-05-04 02:51 56.19258 -48.59851 40092 ft 474 kts 257°
2026-05-04 02:51 56.17750 -48.71314 40083 ft 474 kts 256°
2026-05-04 02:52 56.16224 -48.82820 40082 ft 473 kts 256°
2026-05-04 02:52 56.14693 -48.94279 40077 ft 472 kts 256°
2026-05-04 02:53 56.13148 -49.05751 40072 ft 471 kts 256°
2026-05-04 02:53 56.11599 -49.17165 40065 ft 471 kts 256°
2026-05-04 02:54 56.10052 -49.28484 40060 ft 470 kts 256°
2026-05-04 02:54 56.08487 -49.39846 40060 ft 469 kts 256°
2026-05-04 02:55 56.06123 -49.56847 40054 ft 468 kts 255°
2026-05-04 02:56 56.04535 -49.68163 40048 ft 468 kts 255°
2026-05-04 02:56 56.02940 -49.79447 40046 ft 468 kts 255°
2026-05-04 02:57 56.01345 -49.90649 40039 ft 468 kts 255°
2026-05-04 02:57 55.99502 -50.01794 40041 ft 467 kts 248°
2026-05-04 02:58 55.97026 -50.12543 40035 ft 466 kts 246°
2026-05-04 02:58 55.94459 -50.23122 40032 ft 466 kts 246°
2026-05-04 02:59 55.91858 -50.33738 40030 ft 466 kts 246°
2026-05-04 02:59 55.89263 -50.44336 40024 ft 466 kts 246°
2026-05-04 03:00 55.86679 -50.54867 40016 ft 466 kts 246°
2026-05-04 03:00 55.84069 -50.65459 40016 ft 466 kts 246°
2026-05-04 03:01 55.81452 -50.76027 40015 ft 467 kts 245°
2026-05-04 03:01 55.78827 -50.86579 40009 ft 467 kts 245°
2026-05-04 03:02 55.76203 -50.97070 40002 ft 467 kts 245°
2026-05-04 03:02 55.73556 -51.07606 39996 ft 468 kts 245°
2026-05-04 03:03 55.70896 -51.18144 39995 ft 468 kts 245°
2026-05-04 03:03 55.68215 -51.28713 39995 ft 469 kts 245°
2026-05-04 03:04 55.65529 -51.39252 39987 ft 469 kts 245°
2026-05-04 03:04 55.62847 -51.49730 39985 ft 469 kts 245°
2026-05-04 03:05 55.60138 -51.60260 39983 ft 469 kts 245°
2026-05-04 03:05 55.57423 -51.70765 39980 ft 470 kts 245°
2026-05-04 03:06 55.54711 -51.81207 39975 ft 470 kts 245°
2026-05-04 03:06 55.51969 -51.91718 39977 ft 470 kts 245°
2026-05-04 03:07 55.49221 -52.02201 39974 ft 470 kts 245°
2026-05-04 03:07 55.46485 -52.12592 39971 ft 470 kts 244°
2026-05-04 03:08 55.43719 -52.23050 39969 ft 470 kts 244°
2026-05-04 03:08 55.40961 -52.33426 39966 ft 470 kts 244°
2026-05-04 03:09 55.38183 -52.43832 39956 ft 470 kts 244°
2026-05-04 03:09 55.35390 -52.54245 39964 ft 470 kts 244°
2026-05-04 03:10 55.32593 -52.64627 39957 ft 470 kts 244°
2026-05-04 03:10 55.29788 -52.74990 39955 ft 470 kts 244°
2026-05-04 03:11 55.26973 -52.85345 39952 ft 470 kts 244°
2026-05-04 03:11 55.24168 -52.95614 39952 ft 470 kts 243°
2026-05-04 03:12 55.21334 -53.05945 39945 ft 469 kts 243°
2026-05-04 03:12 55.18499 -53.16232 39949 ft 469 kts 243°
2026-05-04 03:13 55.15664 -53.26471 39942 ft 469 kts 243°
2026-05-04 03:13 55.12805 -53.36753 39948 ft 469 kts 243°
2026-05-04 03:14 55.10420 -53.45296 39946 ft 469 kts 243°
2026-05-04 03:14 55.07548 -53.55542 39939 ft 469 kts 243°
2026-05-04 03:15 55.04667 -53.65772 39935 ft 469 kts 242°
2026-05-04 03:15 55.01792 -53.75939 39936 ft 470 kts 242°
2026-05-04 03:16 54.98895 -53.86138 39932 ft 470 kts 242°
2026-05-04 03:16 54.95983 -53.96345 39932 ft 470 kts 242°
2026-05-04 03:17 54.93063 -54.06535 39930 ft 471 kts 242°
2026-05-04 03:17 54.90132 -54.16718 39930 ft 471 kts 242°
2026-05-04 03:18 54.87190 -54.26896 39927 ft 471 kts 242°
2026-05-04 03:18 54.84236 -54.37070 39926 ft 472 kts 242°
2026-05-04 03:19 54.81272 -54.47232 39922 ft 472 kts 241°
2026-05-04 03:19 54.78314 -54.57333 39922 ft 472 kts 241°
2026-05-04 03:20 54.75333 -54.67468 39919 ft 472 kts 241°
2026-05-04 03:20 54.72338 -54.77609 39916 ft 473 kts 241°
2026-05-04 03:21 54.69335 -54.87732 39917 ft 473 kts 241°
2026-05-04 03:21 54.66323 -54.97840 39915 ft 473 kts 241°
2026-05-04 03:22 54.63303 -55.07935 39916 ft 473 kts 240°
2026-05-04 03:22 54.60288 -55.17967 39908 ft 473 kts 240°
2026-05-04 03:23 54.57248 -55.28042 39908 ft 473 kts 240°
2026-05-04 03:23 54.54200 -55.38101 39905 ft 473 kts 240°
2026-05-04 03:24 54.51151 -55.48120 39912 ft 473 kts 240°
2026-05-04 03:24 54.48106 -55.58085 39910 ft 473 kts 240°
2026-05-04 03:25 54.45031 -55.68104 39902 ft 473 kts 240°
2026-05-04 03:25 54.41951 -55.78099 39906 ft 473 kts 240°
2026-05-04 03:26 54.38859 -55.88088 39900 ft 473 kts 240°
2026-05-04 03:26 54.35761 -55.98057 39901 ft 473 kts 239°
2026-05-04 03:27 54.32676 -56.07946 39901 ft 473 kts 239°
2026-05-04 03:27 54.29564 -56.17878 39898 ft 473 kts 239°
2026-05-04 03:28 54.26446 -56.27788 39895 ft 472 kts 239°
2026-05-04 03:28 54.23315 -56.37698 39892 ft 472 kts 239°
2026-05-04 03:29 54.20204 -56.47505 39896 ft 472 kts 239°
2026-05-04 03:29 54.17066 -56.57356 39883 ft 472 kts 239°
2026-05-04 03:30 54.13917 -56.67202 39886 ft 472 kts 239°
2026-05-04 03:30 54.10761 -56.77030 39885 ft 472 kts 239°
2026-05-04 03:31 54.07622 -56.86768 39883 ft 472 kts 239°
2026-05-04 03:31 54.04452 -56.96560 39879 ft 471 kts 238°
2026-05-04 03:32 54.01242 -57.06287 39876 ft 471 kts 237°
2026-05-04 03:32 53.97877 -57.15855 39876 ft 471 kts 236°
2026-05-04 03:33 53.94513 -57.25323 39876 ft 471 kts 236°
2026-05-04 03:33 53.91149 -57.34838 39875 ft 471 kts 237°
2026-05-04 03:34 53.87771 -57.44410 39871 ft 471 kts 236°
2026-05-04 03:34 53.84403 -57.53924 39868 ft 471 kts 236°
2026-05-04 03:35 53.81025 -57.63427 39863 ft 471 kts 236°
2026-05-04 03:35 53.77634 -57.72928 39864 ft 471 kts 236°
2026-05-04 03:36 53.74235 -57.82414 39859 ft 471 kts 236°
2026-05-04 03:36 53.70854 -57.91814 39859 ft 471 kts 236°
2026-05-04 03:37 53.67439 -58.01273 39860 ft 471 kts 236°
2026-05-04 03:37 53.64015 -58.10719 39856 ft 471 kts 236°
2026-05-04 03:38 53.60591 -58.20132 39853 ft 471 kts 236°
2026-05-04 03:38 53.57151 -58.29553 39851 ft 471 kts 235°
2026-05-04 03:39 53.53732 -58.38879 39851 ft 472 kts 235°
2026-05-04 03:39 53.50278 -58.48267 39847 ft 472 kts 235°
2026-05-04 03:40 53.46816 -58.57640 39844 ft 472 kts 235°
2026-05-04 03:40 53.43350 -58.66992 39838 ft 472 kts 235°
2026-05-04 03:41 53.39892 -58.76285 39837 ft 472 kts 235°
2026-05-04 03:41 53.36408 -58.85615 39832 ft 472 kts 235°
2026-05-04 03:42 53.32915 -58.94934 39832 ft 472 kts 234°
2026-05-04 03:42 53.29436 -59.04179 39822 ft 472 kts 234°
2026-05-04 03:43 53.25926 -59.13472 39823 ft 473 kts 234°
2026-05-04 03:43 53.22408 -59.22754 39825 ft 473 kts 234°
2026-05-04 03:44 53.18877 -59.32036 39822 ft 473 kts 234°
2026-05-04 03:44 53.15340 -59.41299 39812 ft 474 kts 234°
2026-05-04 03:45 53.11790 -59.50560 39812 ft 474 kts 234°
2026-05-04 03:45 53.08230 -59.59815 39809 ft 474 kts 234°
2026-05-04 03:46 53.04688 -59.68989 39805 ft 475 kts 234°
2026-05-04 03:46 53.01107 -59.78232 39802 ft 475 kts 234°
2026-05-04 03:47 52.97519 -59.87460 39800 ft 475 kts 233°
2026-05-04 03:47 52.93939 -59.96633 39798 ft 476 kts 233°
2026-05-04 03:48 52.90328 -60.05850 39801 ft 476 kts 233°
2026-05-04 03:48 52.86712 -60.15045 39803 ft 476 kts 233°
2026-05-04 03:49 52.83090 -60.24225 39795 ft 476 kts 233°
2026-05-04 03:49 52.79475 -60.33353 39789 ft 477 kts 233°
2026-05-04 03:50 52.75837 -60.42507 39788 ft 477 kts 233°
2026-05-04 03:50 52.72185 -60.51663 39787 ft 477 kts 233°
2026-05-04 03:51 52.68523 -60.60810 39781 ft 477 kts 233°
2026-05-04 03:51 52.64858 -60.69932 39787 ft 478 kts 233°
2026-05-04 03:52 52.61181 -60.79051 39784 ft 478 kts 233°
2026-05-04 03:52 52.57517 -60.88103 39785 ft 478 kts 232°
2026-05-04 03:53 52.53817 -60.97215 39783 ft 478 kts 232°
2026-05-04 03:53 52.50113 -61.06304 39783 ft 479 kts 232°
2026-05-04 03:54 52.46418 -61.15339 39779 ft 479 kts 232°
2026-05-04 03:54 52.42682 -61.24441 39777 ft 479 kts 232°
2026-05-04 03:55 52.38979 -61.33431 39781 ft 479 kts 232°
2026-05-04 03:55 52.35224 -61.42512 39777 ft 480 kts 232°
2026-05-04 03:56 52.31470 -61.51562 39769 ft 480 kts 232°
2026-05-04 03:56 52.27736 -61.60531 39774 ft 480 kts 232°
2026-05-04 03:57 52.23963 -61.69563 39764 ft 481 kts 232°
2026-05-04 03:57 52.20185 -61.78573 39770 ft 481 kts 232°
2026-05-04 03:58 52.14506 -61.92060 39769 ft 481 kts 231°
2026-05-04 03:58 52.10706 -62.01044 39769 ft 481 kts 231°
2026-05-04 03:59 52.06928 -62.09946 39767 ft 481 kts 231°
2026-05-04 03:59 52.03115 -62.18897 39769 ft 482 kts 231°
2026-05-04 04:00 51.99290 -62.27847 39768 ft 482 kts 231°
2026-05-04 04:00 51.96106 -62.35275 39766 ft 482 kts 231°
2026-05-04 04:01 51.92261 -62.44212 39765 ft 483 kts 231°
2026-05-04 04:01 51.88423 -62.53106 39761 ft 483 kts 231°
2026-05-04 04:02 51.84575 -62.61988 39754 ft 483 kts 231°
2026-05-04 04:02 51.80702 -62.70899 39758 ft 484 kts 231°
2026-05-04 04:03 51.76823 -62.79794 39757 ft 485 kts 231°
2026-05-04 04:03 51.72919 -62.88717 39757 ft 485 kts 231°
2026-05-04 04:04 51.69037 -62.97555 39753 ft 485 kts 231°
2026-05-04 04:04 51.65130 -63.06422 39756 ft 485 kts 231°
2026-05-04 04:05 51.61209 -63.15291 39752 ft 486 kts 231°
2026-05-04 04:05 51.57280 -63.24147 39752 ft 486 kts 231°
2026-05-04 04:06 51.53366 -63.32939 39751 ft 486 kts 231°
2026-05-04 04:06 51.49411 -63.41791 39753 ft 487 kts 231°
2026-05-04 04:07 51.45449 -63.50631 39748 ft 487 kts 231°
2026-05-04 04:07 51.41511 -63.59387 39750 ft 487 kts 231°
2026-05-04 04:08 51.37539 -63.68188 39750 ft 487 kts 231°
2026-05-04 04:08 51.33555 -63.76986 39751 ft 488 kts 231°
2026-05-04 04:09 51.29584 -63.85726 39750 ft 488 kts 231°
2026-05-04 04:09 51.25587 -63.94494 39754 ft 488 kts 231°
2026-05-04 04:10 51.21582 -64.03250 39748 ft 488 kts 231°
2026-05-04 04:10 51.17590 -64.11945 39746 ft 488 kts 231°
2026-05-04 04:11 51.13565 -64.20686 39747 ft 488 kts 231°
2026-05-04 04:11 51.09534 -64.29410 39743 ft 488 kts 231°
2026-05-04 04:12 51.05532 -64.38044 39741 ft 488 kts 231°
2026-05-04 04:12 51.01492 -64.46730 39739 ft 488 kts 231°
2026-05-04 04:13 50.97445 -64.55400 39737 ft 488 kts 231°
2026-05-04 04:13 50.93394 -64.64052 39741 ft 488 kts 231°
2026-05-04 04:14 50.89385 -64.72585 39743 ft 488 kts 230°
2026-05-04 04:14 50.85281 -64.81292 39736 ft 489 kts 230°
2026-05-04 04:15 50.81198 -64.89924 39731 ft 489 kts 230°
2026-05-04 04:15 50.77144 -64.98469 39728 ft 489 kts 230°
2026-05-04 04:16 50.73046 -65.07078 39720 ft 489 kts 230°
2026-05-04 04:16 50.68949 -65.15655 39714 ft 489 kts 230°
2026-05-04 04:17 50.64844 -65.24221 39714 ft 489 kts 230°
2026-05-04 04:17 50.60752 -65.32734 39704 ft 489 kts 230°
2026-05-04 04:18 50.56631 -65.41278 39699 ft 489 kts 230°
2026-05-04 04:18 50.52499 -65.49817 39702 ft 489 kts 230°
2026-05-04 04:19 50.48369 -65.58323 39700 ft 489 kts 230°
2026-05-04 04:19 50.44231 -65.66818 39706 ft 489 kts 230°
2026-05-04 04:20 50.40114 -65.75245 39706 ft 489 kts 230°
2026-05-04 04:20 50.35970 -65.83697 39707 ft 489 kts 230°
2026-05-04 04:21 50.31821 -65.92134 39707 ft 489 kts 230°
2026-05-04 04:21 50.27666 -66.00555 39707 ft 488 kts 230°
2026-05-04 04:22 50.23511 -66.08950 39704 ft 488 kts 230°
2026-05-04 04:22 50.19346 -66.17337 39704 ft 488 kts 230°
2026-05-04 04:23 50.15179 -66.25703 39703 ft 488 kts 230°
2026-05-04 04:23 50.11037 -66.33992 39705 ft 488 kts 230°
2026-05-04 04:24 50.06859 -66.42324 39706 ft 487 kts 230°
2026-05-04 04:24 50.02675 -66.50644 39711 ft 487 kts 230°
2026-05-04 04:25 49.98514 -66.58892 39712 ft 487 kts 230°
2026-05-04 04:25 49.94320 -66.67179 39717 ft 487 kts 230°
2026-05-04 04:26 49.90125 -66.75442 39716 ft 487 kts 230°
2026-05-04 04:26 49.85918 -66.83704 39722 ft 487 kts 230°
2026-05-04 04:27 49.81728 -66.91906 39718 ft 487 kts 230°
2026-05-04 04:27 49.77513 -67.00131 39718 ft 487 kts 230°
2026-05-04 04:28 49.73293 -67.08341 39718 ft 487 kts 230°
2026-05-04 04:28 49.69068 -67.16534 39719 ft 487 kts 230°
2026-05-04 04:29 49.64843 -67.24702 39721 ft 487 kts 230°
2026-05-04 04:29 49.60602 -67.32874 39718 ft 487 kts 230°
2026-05-04 04:30 49.56364 -67.41018 39721 ft 486 kts 230°
2026-05-04 04:30 49.52150 -67.49091 39720 ft 486 kts 229°
2026-05-04 04:31 49.47901 -67.57205 39720 ft 486 kts 230°
2026-05-04 04:31 49.43649 -67.65301 39722 ft 486 kts 229°
2026-05-04 04:32 49.39394 -67.73377 39717 ft 486 kts 229°
2026-05-04 04:32 49.35158 -67.81390 39716 ft 486 kts 229°
2026-05-04 04:33 49.30893 -67.89436 39719 ft 486 kts 229°
2026-05-04 04:33 49.26622 -67.97469 39725 ft 485 kts 229°
2026-05-04 04:34 49.22343 -68.05491 39724 ft 485 kts 229°
2026-05-04 04:34 49.18060 -68.13500 39721 ft 491 kts 229°
2026-05-04 04:35 49.13804 -68.21724 39722 ft 496 kts 234°
2026-05-04 04:35 49.10347 -68.30868 39724 ft 497 kts 239°
2026-05-04 04:36 49.07106 -68.40195 39724 ft 497 kts 240°
2026-05-04 04:36 49.03889 -68.49531 39726 ft 497 kts 240°
2026-05-04 04:37 48.97408 -68.68081 39732 ft 497 kts 240°
2026-05-04 04:38 48.94134 -68.77370 39734 ft 497 kts 240°
2026-05-04 04:38 48.90852 -68.86651 39736 ft 497 kts 240°
2026-05-04 04:39 48.87589 -68.95843 39739 ft 497 kts 240°
2026-05-04 04:39 48.84294 -69.05095 39739 ft 497 kts 240°
2026-05-04 04:40 48.80994 -69.14331 39746 ft 497 kts 240°
2026-05-04 04:40 48.77686 -69.23555 39745 ft 497 kts 240°
2026-05-04 04:41 48.74393 -69.32703 39750 ft 497 kts 239°
2026-05-04 04:41 48.71067 -69.41912 39752 ft 497 kts 239°
2026-05-04 04:42 48.67735 -69.51104 39758 ft 497 kts 239°
2026-05-04 04:42 48.64400 -69.60272 39764 ft 497 kts 239°
2026-05-04 04:43 48.61054 -69.69439 39763 ft 497 kts 239°
2026-05-04 04:43 48.57726 -69.78525 39768 ft 497 kts 239°
2026-05-04 04:44 48.54369 -69.87657 39774 ft 497 kts 239°
2026-05-04 04:44 48.51010 -69.96765 39776 ft 497 kts 239°
2026-05-04 04:45 48.47637 -70.05878 39783 ft 497 kts 239°
2026-05-04 04:47 48.35809 -70.37587 39794 ft 496 kts 239°
2026-05-04 04:47 48.32405 -70.46641 39798 ft 496 kts 239°
2026-05-04 04:48 48.29023 -70.55607 39799 ft 496 kts 239°
2026-05-04 04:49 48.20481 -70.78121 39795 ft 496 kts 239°
2026-05-04 04:49 48.17629 -70.85595 39793 ft 496 kts 239°
2026-05-04 04:50 48.14193 -70.94572 39794 ft 496 kts 239°
2026-05-04 04:50 48.10754 -71.03527 39795 ft 496 kts 239°
2026-05-04 04:51 48.07333 -71.12404 39789 ft 495 kts 239°
2026-05-04 04:51 48.03881 -71.21335 39783 ft 495 kts 239°
2026-05-04 04:52 48.00695 -71.30471 39787 ft 496 kts 244°
2026-05-04 04:52 47.97880 -71.39886 39783 ft 496 kts 245°
2026-05-04 04:53 47.95138 -71.49256 39782 ft 495 kts 245°
2026-05-04 04:53 47.92369 -71.58680 39784 ft 495 kts 245°
2026-05-04 04:54 47.89587 -71.68076 39782 ft 495 kts 245°
2026-05-04 04:54 47.86796 -71.77446 39783 ft 495 kts 245°
2026-05-04 04:55 47.83998 -71.86802 39787 ft 494 kts 245°
2026-05-04 04:55 47.81211 -71.96090 39789 ft 494 kts 245°
2026-05-04 04:56 47.78398 -72.05426 39789 ft 494 kts 245°
2026-05-04 04:56 47.75578 -72.14757 39789 ft 494 kts 245°
2026-05-04 04:57 47.72750 -72.24076 39791 ft 494 kts 245°
2026-05-04 04:57 47.69933 -72.33324 39793 ft 494 kts 245°
2026-05-04 04:58 47.67093 -72.42612 39796 ft 494 kts 245°
2026-05-04 04:58 47.64243 -72.51899 39800 ft 494 kts 245°
2026-05-04 04:59 47.61389 -72.61165 39798 ft 493 kts 245°
2026-05-04 04:59 47.58529 -72.70415 39801 ft 493 kts 245°
2026-05-04 05:00 47.55683 -72.79588 39802 ft 493 kts 245°
2026-05-04 05:01 47.51379 -72.93394 39808 ft 492 kts 245°
2026-05-04 05:01 47.48504 -73.02574 39800 ft 492 kts 245°
2026-05-04 05:02 47.45626 -73.11734 39800 ft 491 kts 244°
2026-05-04 05:02 47.42735 -73.20898 39798 ft 491 kts 244°
2026-05-04 05:03 47.39857 -73.29989 39801 ft 491 kts 244°
2026-05-04 05:04 47.34049 -73.48235 39797 ft 490 kts 244°
2026-05-04 05:04 47.31157 -73.57273 39792 ft 490 kts 244°
2026-05-04 05:06 47.19450 -73.93533 39786 ft 489 kts 244°
2026-05-04 05:07 47.16523 -74.02520 39778 ft 489 kts 244°
2026-05-04 05:07 47.13576 -74.11537 39779 ft 489 kts 244°
2026-05-04 05:09 47.00256 -74.51898 39758 ft 488 kts 244°
2026-05-04 05:10 46.97279 -74.60833 39756 ft 488 kts 244°
2026-05-04 05:10 46.94312 -74.69708 39762 ft 487 kts 244°
2026-05-04 05:11 46.91317 -74.78634 39754 ft 487 kts 244°
2026-05-04 05:11 46.88345 -74.87463 39757 ft 487 kts 244°
2026-05-04 05:12 46.85343 -74.96350 39752 ft 487 kts 244°
2026-05-04 05:12 46.82342 -75.05206 39750 ft 486 kts 244°
2026-05-04 05:13 46.79330 -75.14064 39750 ft 486 kts 244°
2026-05-04 05:13 46.76315 -75.22901 39751 ft 486 kts 243°
2026-05-04 05:14 46.73313 -75.31669 39749 ft 486 kts 243°
2026-05-04 05:14 46.70286 -75.40480 39746 ft 486 kts 243°
2026-05-04 05:15 46.67254 -75.49276 39743 ft 485 kts 243°
2026-05-04 05:15 46.64231 -75.58016 39745 ft 485 kts 243°
2026-05-04 05:16 46.61187 -75.66789 39742 ft 485 kts 243°
2026-05-04 05:16 46.58133 -75.75564 39739 ft 485 kts 243°
2026-05-04 05:17 46.55077 -75.84313 39735 ft 485 kts 243°
2026-05-04 05:17 46.52030 -75.93007 39736 ft 485 kts 243°
2026-05-04 05:18 46.48960 -76.01739 39736 ft 485 kts 243°
2026-05-04 05:18 46.45905 -76.10400 39735 ft 485 kts 243°
2026-05-04 05:19 46.42822 -76.19110 39732 ft 485 kts 243°
2026-05-04 05:19 46.39726 -76.27830 39730 ft 485 kts 243°
2026-05-04 05:20 46.36631 -76.36518 39731 ft 485 kts 243°
2026-05-04 05:20 46.33550 -76.45140 39736 ft 485 kts 243°
2026-05-04 05:21 46.30435 -76.53826 39735 ft 485 kts 243°
2026-05-04 05:21 46.27325 -76.62472 39735 ft 485 kts 243°
2026-05-04 05:22 46.24222 -76.71071 39734 ft 485 kts 243°
2026-05-04 05:22 46.21101 -76.79693 39734 ft 485 kts 243°
2026-05-04 05:23 46.17967 -76.88323 39737 ft 485 kts 243°
2026-05-04 05:23 46.14827 -76.96938 39737 ft 485 kts 243°
2026-05-04 05:24 46.11682 -77.05542 39737 ft 485 kts 243°
2026-05-04 05:24 46.08553 -77.14075 39736 ft 484 kts 243°
2026-05-04 05:25 46.05398 -77.22652 39735 ft 484 kts 243°
2026-05-04 05:25 46.02236 -77.31221 39736 ft 484 kts 243°
2026-05-04 05:26 45.99075 -77.39759 39732 ft 484 kts 243°
2026-05-04 05:26 45.95897 -77.48318 39737 ft 484 kts 243°
2026-05-04 05:28 45.83182 -77.82289 39737 ft 483 kts 243°
2026-05-04 05:29 45.80004 -77.90714 39738 ft 483 kts 243°
2026-05-04 05:29 45.76802 -77.99178 39739 ft 483 kts 243°
2026-05-04 05:31 45.63951 -78.32878 39749 ft 482 kts 243°
2026-05-04 05:32 45.60719 -78.41291 39751 ft 483 kts 243°
2026-05-04 05:33 45.55855 -78.53900 39748 ft 483 kts 243°
2026-05-04 05:33 45.52631 -78.62228 39748 ft 483 kts 243°
2026-05-04 05:34 45.49371 -78.70620 39752 ft 482 kts 242°
2026-05-04 05:34 45.46113 -78.78985 39750 ft 482 kts 242°
2026-05-04 05:35 45.42851 -78.87335 39754 ft 482 kts 242°
2026-05-04 05:35 45.39600 -78.95629 39755 ft 482 kts 242°
2026-05-04 05:36 45.36324 -79.03963 39756 ft 482 kts 242°
2026-05-04 05:36 45.33042 -79.12289 39758 ft 483 kts 242°
2026-05-04 05:37 45.29744 -79.20627 39760 ft 483 kts 242°
2026-05-04 05:37 45.26469 -79.28884 39761 ft 483 kts 242°
2026-05-04 05:38 45.21506 -79.41351 39765 ft 483 kts 242°
2026-05-04 05:38 45.18217 -79.49583 39763 ft 483 kts 242°
2026-05-04 05:39 45.13233 -79.62008 39761 ft 483 kts 242°
2026-05-04 05:40 45.08185 -79.74289 39764 ft 484 kts 237°
2026-05-04 05:40 45.04052 -79.81835 39764 ft 485 kts 233°
2026-05-04 05:41 45.00473 -79.87973 39768 ft 486 kts 233°
2026-05-04 05:41 44.96144 -79.95303 39772 ft 486 kts 233°
2026-05-04 05:42 44.91811 -80.02645 39771 ft 486 kts 233°
2026-05-04 05:42 44.87492 -80.09969 39770 ft 485 kts 233°
2026-05-04 05:43 44.83172 -80.17285 39768 ft 485 kts 233°
2026-05-04 05:45 44.65868 -80.46397 39771 ft 485 kts 233°
2026-05-04 05:47 44.48513 -80.75294 39775 ft 485 kts 233°
2026-05-04 05:47 44.44154 -80.82508 39775 ft 485 kts 233°
2026-05-04 05:48 44.39791 -80.89709 39780 ft 485 kts 233°
2026-05-04 05:48 44.35424 -80.96897 39775 ft 485 kts 233°
2026-05-04 05:49 44.31048 -81.04083 39774 ft 484 kts 232°
2026-05-04 05:49 44.26675 -81.11246 39777 ft 484 kts 232°
2026-05-04 05:51 44.09163 -81.39751 39783 ft 484 kts 232°
2026-05-04 05:52 44.04772 -81.46854 39785 ft 484 kts 232°
2026-05-04 05:52 44.00400 -81.53909 39781 ft 484 kts 232°
2026-05-04 05:54 43.82781 -81.82164 39784 ft 484 kts 232°
2026-05-04 05:55 43.78360 -81.89209 39784 ft 484 kts 232°
2026-05-04 05:55 43.73927 -81.96258 39781 ft 484 kts 232°
2026-05-04 05:56 43.69523 -82.03243 39781 ft 484 kts 232°
2026-05-04 05:56 43.65081 -82.10271 39782 ft 484 kts 232°
2026-05-04 05:57 43.60638 -82.17283 39781 ft 484 kts 232°
2026-05-04 05:57 43.56200 -82.24271 39773 ft 484 kts 232°
2026-05-04 05:58 43.51759 -82.31246 39784 ft 484 kts 232°
2026-05-04 05:58 43.47345 -82.38162 39786 ft 484 kts 232°
2026-05-04 05:59 43.42891 -82.45124 39783 ft 484 kts 232°
2026-05-04 05:59 43.38434 -82.52073 39787 ft 484 kts 232°
2026-05-04 06:00 43.33970 -82.59016 39787 ft 484 kts 232°
2026-05-04 06:00 43.29537 -82.65895 39790 ft 483 kts 232°
2026-05-04 06:01 43.25723 -82.73380 39793 ft 475 kts 247°
2026-05-04 06:03 43.16128 -83.06917 39800 ft 473 kts 252°
2026-05-04 06:05 43.05380 -83.44591 39803 ft 472 kts 252°
2026-05-04 06:06 43.02971 -83.52961 39803 ft 472 kts 252°
2026-05-04 06:06 43.00577 -83.61250 39805 ft 472 kts 252°
2026-05-04 06:07 42.98160 -83.69590 39801 ft 472 kts 251°
2026-05-04 06:07 42.96107 -83.78068 39803 ft 467 kts 261°
2026-05-04 06:08 42.95648 -83.86849 39804 ft 462 kts 275°
2026-05-04 06:08 42.96874 -83.95361 39799 ft 459 kts 289°
2026-05-04 06:09 42.99717 -84.03156 39795 ft 460 kts 303°
2026-05-04 06:11 43.22250 -84.17830 39795 ft 484 kts 359°
2026-05-04 06:13 43.45675 -83.99216 39769 ft 521 kts 51°
2026-05-04 06:14 43.52202 -83.70559 39772 ft 537 kts 88°
2026-05-04 06:14 43.52039 -83.65466 39769 ft 539 kts 94°
2026-05-04 06:15 43.50620 -83.55304 39780 ft 541 kts 106°
2026-05-04 06:15 43.47800 -83.45706 39774 ft 541 kts 118°
2026-05-04 06:16 43.43697 -83.37062 39777 ft 539 kts 130°
2026-05-04 06:16 43.38525 -83.29767 39773 ft 536 kts 142°
2026-05-04 06:17 43.32391 -83.23984 39776 ft 532 kts 154°
2026-05-04 06:17 43.25625 -83.20050 39786 ft 526 kts 167°
2026-05-04 06:18 43.18504 -83.18117 39793 ft 518 kts 179°
2026-05-04 06:20 42.93145 -83.30570 39812 ft 483 kts 231°
2026-05-04 06:21 42.86163 -83.50424 39808 ft 465 kts 265°
2026-05-04 06:22 42.86210 -83.59185 39806 ft 461 kts 279°
2026-05-04 06:25 43.21292 -83.85043 39777 ft 497 kts 16°
2026-05-04 06:26 43.27456 -83.80674 39768 ft 507 kts 29°
2026-05-04 06:26 43.32891 -83.74408 39763 ft 515 kts 42°
2026-05-04 06:27 43.41561 -83.52648 39774 ft 532 kts 73°
2026-05-04 06:28 43.42647 -83.42541 39777 ft 537 kts 85°
2026-05-04 06:28 43.42275 -83.32325 39777 ft 540 kts 97°
2026-05-04 06:29 43.40454 -83.22293 39778 ft 541 kts 110°
2026-05-04 06:29 43.37890 -83.14453 39776 ft 541 kts 120°
2026-05-04 06:30 43.32847 -83.04670 39779 ft 538 kts 134°
2026-05-04 06:30 43.28341 -82.98799 39786 ft 535 kts 143°
2026-05-04 06:31 43.22121 -82.93236 39792 ft 530 kts 156°
2026-05-04 06:31 43.15302 -82.89547 39796 ft 524 kts 168°
2026-05-04 06:33 42.88242 -82.95155 39817 ft 490 kts 219°
2026-05-04 06:34 42.83184 -83.01256 39821 ft 482 kts 233°
2026-05-04 06:34 42.79452 -83.08648 39824 ft 474 kts 246°
2026-05-04 06:36 42.80472 -83.42117 39815 ft 460 kts 302°
2026-05-04 06:37 42.84655 -83.48740 39813 ft 463 kts 316°
2026-05-04 06:37 42.89982 -83.53667 39809 ft 468 kts 330°
2026-05-04 06:38 42.96176 -83.56633 39805 ft 476 kts 344°
2026-05-04 06:40 43.18881 -83.49828 39785 ft 508 kts 31°
2026-05-04 06:40 43.21667 -83.46807 39783 ft 512 kts 37°
2026-05-04 06:40 43.26503 -83.39531 39785 ft 521 kts 50°
2026-05-04 06:41 43.30180 -83.30893 39779 ft 528 kts 63°
2026-05-04 06:41 43.32522 -83.21339 39769 ft 533 kts 75°
2026-05-04 06:42 43.33450 -83.11177 39774 ft 537 kts 87°
2026-05-04 06:44 43.23053 -82.73648 39791 ft 538 kts 135°
2026-05-04 06:44 43.17446 -82.66907 39800 ft 534 kts 147°
2026-05-04 06:45 43.11082 -82.61902 39807 ft 528 kts 159°
2026-05-04 06:45 43.04148 -82.58773 39810 ft 522 kts 172°
2026-05-04 06:46 42.96994 -82.57691 39813 ft 514 kts 184°
2026-05-04 06:46 42.89985 -82.58688 39811 ft 506 kts 197°
2026-05-04 06:48 42.71053 -82.76840 39825 ft 475 kts 243°
2026-05-04 06:48 42.69571 -82.80833 39826 ft 471 kts 250°
2026-05-04 06:50 42.72490 -83.14010 39826 ft 462 kts 306°
2026-05-04 06:51 42.77047 -83.20199 39824 ft 465 kts 320°
2026-05-04 06:51 42.82645 -83.24592 39819 ft 471 kts 334°
2026-05-04 06:52 42.89012 -83.26967 39817 ft 479 kts 348°
2026-05-04 06:52 42.95715 -83.27137 39816 ft 487 kts
2026-05-04 06:53 43.02397 -83.25085 39811 ft 497 kts 15°
2026-05-04 06:53 43.08622 -83.20959 39803 ft 506 kts 28°
2026-05-04 06:54 43.14169 -83.14902 39798 ft 515 kts 41°
2026-05-04 06:54 43.18718 -83.07234 39794 ft 523 kts 53°
2026-05-04 06:55 43.22062 -82.98293 39797 ft 529 kts 66°
2026-05-04 06:55 43.24029 -82.88578 39790 ft 535 kts 78°
2026-05-04 06:57 43.17630 -82.49457 39810 ft 539 kts 126°
2026-05-04 06:58 43.12775 -82.41671 39809 ft 536 kts 138°
2026-05-04 06:58 43.06937 -82.35381 39811 ft 532 kts 150°
2026-05-04 06:59 43.00398 -82.30872 39811 ft 526 kts 162°
2026-05-04 06:59 42.93378 -82.28291 39812 ft 519 kts 175°
2026-05-04 07:01 42.70012 -82.35362 39814 ft 489 kts 220°
2026-05-04 07:01 42.67375 -82.38263 39819 ft 484 kts 227°
2026-05-04 07:02 42.63034 -82.45154 39821 ft 476 kts 240°
2026-05-04 07:02 42.60148 -82.53100 39828 ft 469 kts 254°
2026-05-04 07:03 42.58856 -82.61705 39829 ft 464 kts 268°
2026-05-04 07:03 42.59255 -82.70408 39828 ft 461 kts 282°
2026-05-04 07:04 42.61323 -82.78625 39826 ft 461 kts 296°
2026-05-04 07:04 42.64922 -82.85826 39819 ft 463 kts 310°
2026-05-04 07:05 42.69781 -82.91509 39820 ft 468 kts 324°
2026-05-04 07:05 42.75673 -82.95394 39824 ft 474 kts 338°
2026-05-04 07:06 42.82184 -82.97174 39819 ft 482 kts 352°
2026-05-04 07:06 42.85553 -82.97236 39817 ft 486 kts 359°
2026-05-04 07:07 42.92279 -82.95697 39814 ft 495 kts 12°
2026-05-04 07:08 43.11178 -82.74976 39799 ft 525 kts 57°
2026-05-04 07:09 43.12851 -82.70503 39803 ft 528 kts 63°
2026-05-04 07:09 43.15172 -82.60919 39802 ft 534 kts 75°
2026-05-04 07:10 43.16067 -82.50801 39810 ft 537 kts 87°
2026-05-04 07:12 43.05563 -82.13473 39795 ft 537 kts 135°
2026-05-04 07:12 42.99943 -82.06811 39803 ft 533 kts 148°
2026-05-04 07:13 42.93528 -82.01859 39808 ft 527 kts 160°
2026-05-04 07:13 42.86635 -81.98837 39811 ft 520 kts 172°
2026-05-04 07:14 42.72474 -81.98940 39828 ft 503 kts 198°
2026-05-04 07:14 42.69117 -82.00264 39830 ft 499 kts 204°
2026-05-04 07:15 42.62987 -82.04323 39830 ft 490 kts 217°
2026-05-04 07:15 42.57781 -82.10155 39827 ft 481 kts 231°
2026-05-04 07:16 42.53849 -82.17393 39827 ft 473 kts 244°
2026-05-04 07:16 42.51429 -82.25558 39826 ft 467 kts 258°